Wind_Speed
37 42 44 39 25 4 15 19 17 14 13 22 19 20 20 21 26 29 25 30 33 34 32 32 32 32 32 31 31 30 32 34 35 38 39 39 40 40 39 39 40 38 39 40
33 40 42 40 34 15 12 18 19 20 19 13 11 30 24 22 23 25 27 31 32 34 34 36 37 36 34 35 35 35 35 36 36 38 41 43 43 40 40 40 41 41 41 42
31 36 39 36 38 28 16 3 21 26 27 25 22 19 25 30 26 22 26 27 29 32 34 37 37 37 39 40 39 39 39 39 39 38 38 38 40 41 41 44 44 45 46 46
28 32 36 36 36 32 28 19 7 15 19 21 22 25 27 21 30 31 29 28 28 28 30 33 37 40 41 41 42 44 45 47 47 47 46 45 44 45 46 45 46 47 47 45
26 28 32 35 35 35 33 31 19 9 22 26 24 21 20 25 28 31 33 31 32 32 31 31 33 34 36 38 39 40 42 45 46 47 48 48 47 47 47 48 47 47 46 45
25 26 31 32 33 35 37 33 33 16 12 19 24 21 20 23 29 34 31 30 31 32 32 33 35 35 35 35 35 37 40 42 42 41 42 43 44 44 44 45 44 43 42 41
22 25 27 30 29 33 34 34 37 35 14 13 18 24 23 21 26 29 31 34 35 35 36 36 39 39 38 37 37 35 36 38 39 39 41 42 43 42 41 43 44 44 43 42
20 23 25 28 27 27 30 31 34 37 36 28 15 20 22 23 22 23 25 31 35 37 40 42 43 44 44 41 38 37 37 36 36 36 37 38 39 40 40 40 41 40 41 40
18 21 24 26 26 27 28 32 32 28 32 34 33 18 20 24 23 22 22 24 25 28 30 26 33 37 38 41 41 40 39 40 38 36 35 36 36 38 36 36 36 40 42 44
17 19 22 25 26 27 29 26 29 28 25 29 31 32 15 19 22 24 23 23 26 29 28 29 25 25 29 32 37 40 40 40 41 40 38 37 37 35 34 35 37 36 36 36
15 17 21 23 26 25 25 26 24 29 27 24 26 29 28 11 17 22 24 23 22 23 26 29 31 33 32 31 28 30 33 42 41 41 38 37 36 35 36 36 36 35 36 36
14 17 20 23 25 25 24 26 24 25 27 26 27 23 24 22 10 13 23 26 25 23 20 20 21 24 25 28 28 29 32 32 32 34 36 37 37 37 38 40 40 38 37 36
14 16 19 22 24 25 25 24 25 25 25 26 23 23 19 18 16 13 17 23 29 25 24 23 21 22 24 27 29 30 31 33 34 35 35 37 38 39 40 41 41 41 40 38
14 16 18 23 25 27 27 28 28 27 25 22 20 20 17 14 16 16 16 18 24 27 27 28 28 28 29 29 30 31 32 34 36 36 37 37 38 39 40 41 42 42 41 41
15 16 19 22 25 28 30 30 31 29 26 22 21 18 14 14 14 15 16 15 16 21 24 24 27 30 31 30 32 29 26 29 32 36 39 40 40 41 41 41 41 41 41 40
16 17 19 22 26 28 31 33 33 32 31 28 23 16 12 14 16 17 17 18 21 22 24 24 24 21 27 28 29 30 28 29 27 28 31 32 34 37 39 39 40 41 40 37
18 19 21 23 26 29 32 33 35 34 34 31 25 18 14 15 19 22 23 22 24 27 30 29 30 31 30 30 29 32 34 36 35 33 32 34 36 36 38 40 45 43 41 42
20 21 22 24 27 30 33 35 36 37 36 34 31 25 20 19 20 25 28 29 30 32 34 38 41 40 41 42 36 34 34 34 33 32 33 33 33 34 38 43 45 43 43 42
22 23 24 24 26 30 34 37 39 41 40 37 34 28 24 23 24 27 32 35 35 35 36 38 41 44 45 43 39 38 38 40 40 37 34 33 33 33 35 36 36 34 34 34
22 24 24 25 28 31 35 39 42 42 42 40 36 32 27 25 26 29 33 38 40 41 42 43 42 41 43 46 48 45 44 41 42 40 41 38 38 39 34 33 33 30 31 31
23 24 25 26 30 33 36 40 42 43 44 43 39 36 32 29 31 32 34 37 39 42 46 49 49 47 41 40 43 48 50 53 52 45 46 45 44 42 41 37 36 33 31 30
23 25 25 28 31 34 38 41 43 44 45 43 40 38 37 36 36 36 36 37 39 43 48 52 54 50 46 41 37 40 46 51 51 50 45 43 42 41 38 38 36 32 33 32
25 26 26 29 32 35 40 43 44 47 48 46 44 42 41 40 40 39 38 38 40 44 49 53 53 53 46 37 34 35 42 45 46 46 45 45 43 40 39 39 38 38 37 36
26 27 28 31 34 38 42 44 45 48 49 49 47 47 45 45 45 43 41 43 45 46 50 53 54 48 38 30 32 37 35 33 34 42 40 42 40 41 41 37 37 38 36 34
27 28 30 33 36 41 44 46 48 50 52 51 50 50 50 49 49 47 50 51 46 43 46 49 46 36 27 32 34 31 29 28 25 28 36 35 35 36 37 36 36 35 33 31
29 31 33 36 39 44 47 48 51 54 54 54 53 53 54 53 53 56 57 51 43 38 39 38 35 26 28 29 27 29 27 26 21 19 24 30 37 39 39 38 38 37 33 30
31 33 35 39 42 45 48 50 54 55 56 56 56 56 57 57 60 61 56 47 40 34 33 34 33 26 25 26 24 24 27 28 27 22 20 18 30 42 41 37 35 35 34 33
Wind_Direction
23 28 33 35 31 163 193 214 222 226 237 247 246 253 246 232 226 222 225 226 226 229 228 227 227 230 238 241 238 239 240 242 243 244 247 249 250 250 251 251 252 250 252 257
23 28 32 35 36 37 206 213 214 223 251 257 250 242 251 249 249 234 230 230 227 229 233 234 230 227 230 232 236 236 239 243 243 244 247 248 250 249 250 250 252 259 262 263
19 25 31 32 36 33 32 270 235 246 259 262 261 257 245 246 250 249 245 240 240 238 235 237 238 236 233 235 234 236 238 239 241 242 245 247 250 250 253 255 258 258 258 258
19 23 27 30 33 31 30 20 308 257 260 259 260 259 259 257 245 245 246 245 243 239 240 238 238 240 241 241 240 243 245 246 245 246 248 249 251 253 258 261 261 263 263 263
20 21 25 26 27 26 23 22 19 319 255 261 266 261 253 252 245 241 239 243 245 245 246 244 243 243 246 247 249 249 248 249 251 254 255 255 256 256 257 258 260 262 264 267
18 17 19 21 25 25 23 17 14 4 305 270 259 265 265 255 244 239 241 241 242 246 250 252 251 252 253 251 251 252 253 255 257 258 258 258 259 261 261 261 262 263 261 259
12 14 17 17 15 22 25 19 12 10 345 286 266 255 258 259 249 245 242 249 251 248 252 260 257 255 257 256 254 254 254 254 254 255 257 258 258 257 256 256 259 257 258 258
6 8 11 9 12 17 20 25 20 7 6 357 308 261 252 253 253 250 245 246 250 253 257 260 256 251 253 257 258 259 255 252 252 253 254 253 253 253 253 254 255 256 257 258
4 3 5 2 3 11 10 18 21 20 13 1 358 323 269 251 248 250 252 252 253 249 246 253 256 250 251 253 256 260 258 256 253 256 258 256 253 255 259 259 258 257 255 254
358 359 0 358 359 4 5 2 10 20 15 7 4 358 331 259 249 246 247 250 248 249 251 254 252 250 256 257 255 255 256 254 253 255 257 254 253 254 257 256 252 252 254 257
354 356 358 356 356 357 359 358 358 9 15 15 18 18 1 324 258 249 246 254 259 259 261 257 254 259 264 264 264 260 263 253 251 252 252 254 256 257 257 255 256 258 259 260
350 354 356 356 352 353 358 1 357 358 6 16 19 24 15 1 288 267 241 247 257 262 265 263 263 261 262 262 260 259 261 257 252 254 255 254 255 256 256 258 262 261 261 263
343 346 352 353 352 354 356 359 358 1 359 5 13 20 21 349 330 288 268 252 247 252 260 260 258 264 266 260 258 258 258 256 254 253 253 256 256 255 254 255 257 257 259 262
332 339 349 350 349 353 354 358 359 1 358 360 4 9 12 348 329 315 292 264 247 247 254 263 265 265 264 261 260 260 261 260 255 251 253 253 255 256 256 256 256 257 258 258
321 330 341 343 346 351 350 353 357 359 356 356 1 0 351 345 332 311 295 278 264 259 256 259 263 267 262 265 261 262 261 265 264 259 256 254 254 256 257 257 257 257 256 257
314 320 329 336 342 347 348 347 350 354 355 355 353 347 335 311 309 310 299 281 272 262 268 272 267 276 264 276 272 261 258 262 274 271 262 260 261 260 260 260 258 257 256 255
310 316 323 331 338 344 345 345 345 349 350 351 347 336 327 308 300 299 299 294 281 272 271 272 276 274 278 274 275 274 271 274 275 272 267 266 263 259 256 254 255 258 255 250
305 313 321 328 337 340 339 341 342 345 347 347 344 341 327 308 300 297 298 296 291 284 278 276 276 278 277 279 276 271 271 272 269 270 269 267 267 265 262 257 253 250 249 248
300 306 315 321 330 336 338 340 341 345 344 343 341 335 326 312 300 295 294 295 295 293 288 283 277 276 277 276 272 270 268 269 267 266 267 268 270 273 268 261 258 257 257 257
298 298 310 319 326 333 337 340 341 341 341 340 338 334 325 315 305 295 292 292 293 294 293 291 288 281 273 269 267 263 265 268 260 259 259 261 262 263 267 268 262 259 260 260
299 300 306 312 319 328 332 336 336 338 338 337 335 332 326 317 310 300 294 292 291 290 289 289 289 289 286 276 267 263 260 257 259 264 261 258 257 262 263 266 263 260 262 261
304 301 299 305 314 323 328 331 333 335 335 333 332 329 327 322 314 309 303 298 296 290 287 287 291 295 292 288 279 269 262 257 259 260 257 259 259 257 259 259 255 256 259 263
301 301 303 308 316 321 325 328 330 332 332 331 330 330 327 323 319 312 308 307 299 293 292 291 292 293 295 289 283 274 265 264 262 257 254 255 254 252 253 255 255 256 260 263
302 303 305 310 318 322 323 325 328 330 330 330 331 330 328 325 322 320 317 314 309 301 293 292 296 302 304 287 273 269 277 272 267 257 259 253 253 252 250 250 254 255 254 255
303 304 306 312 318 320 321 324 327 327 329 330 329 329 328 327 324 322 323 318 312 302 296 298 303 311 295 279 273 275 273 273 275 262 257 249 242 242 246 245 248 247 247 249
303 305 305 309 315 318 321 323 325 327 329 329 329 329 328 326 325 326 324 321 315 305 300 302 307 310 296 298 286 274 269 269 272 272 257 254 250 238 240 244 248 249 245 240
302 304 306 309 314 318 320 322 325 327 328 328 328 327 326 326 326 327 323 319 315 308 300 298 300 297 294 302 299 283 269 265 265 269 264 257 246 241 239 239 240 237 236 238
Height
5618 5610 5602 5595 5588 5586 5589 5591 5594 5597 5598 5598 5600 5601 5602 5605 5609 5614 5617 5620 5624 5628 5632 5637 5641 5646 5651 5654 5657 5661 5666 5669 5672 5677 5680 5683 5687 5689 5692 5695 5698 5699 5701 5703
5622 5614 5606 5600 5594 5591 5592 5593 5594 5596 5596 5598 5598 5600 5600 5601 5603 5607 5612 5616 5619 5624 5628 5629 5635 5637 5641 5647 5649 5652 5655 5659 5662 5666 5670 5674 5677 5678 5682 5685 5688 5689 5690 5691
5623 5617 5611 5605 5599 5595 5593 5592 5593 5594 5594 5593 5594 5596 5597 5598 5600 5602 5604 5610 5614 5617 5619 5623 5625 5629 5632 5634 5638 5642 5645 5649 5653 5657 5660 5663 5666 5668 5671 5675 5676 5678 5679 5679
5625 5619 5614 5610 5604 5598 5595 5591 5590 5589 5588 5588 5589 5590 5592 5594 5596 5598 5599 5601 5604 5608 5612 5615 5618 5621 5624 5627 5630 5634 5637 5640 5644 5647 5650 5652 5654 5656 5659 5661 5663 5664 5665 5667
5627 5621 5617 5611 5605 5602 5598 5593 5589 5585 5584 5583 5583 5584 5586 5587 5589 5591 5593 5596 5598 5601 5604 5608 5611 5614 5616 5619 5622 5625 5628 5632 5634 5637 5640 5642 5644 5646 5647 5650 5651 5653 5655 5657
5628 5623 5618 5613 5609 5603 5597 5593 5586 5582 5579 5577 5577 5579 5579 5580 5582 5585 5588 5590 5591 5593 5596 5599 5602 5605 5609 5612 5616 5617 5619 5622 5624 5627 5628 5631 5634 5635 5638 5639 5640 5643 5644 5645
5628 5624 5621 5615 5610 5605 5600 5597 5587 5581 5577 5573 5573 5573 5574 5574 5575 5578 5580 5582 5585 5588 5589 5591 5593 5596 5599 5602 5605 5607 5610 5612 5615 5617 5618 5621 5622 5625 5626 5627 5629 5631 5633 5634
5628 5624 5621 5615 5612 5608 5603 5596 5590 5582 5575 5571 5569 5567 5567 5568 5570 5571 5573 5576 5577 5579 5581 5583 5585 5587 5589 5591 5594 5597 5599 5603 5605 5607 5610 5611 5610 5613 5614 5616 5618 5619 5620 5622
5629 5625 5620 5617 5612 5608 5601 5597 5592 5586 5581 5573 5567 5562 5561 5562 5563 5565 5566 5568 5570 5572 5574 5574 5575 5577 5580 5583 5584 5586 5588 5591 5594 5596 5597 5598 5600 5602 5602 5604 5605 5606 5608 5610
5628 5624 5620 5616 5611 5606 5602 5598 5593 5588 5581 5574 5567 5560 5555 5555 5556 5558 5560 5563 5564 5565 5567 5568 5569 5570 5572 5573 5574 5576 5578 5579 5581 5584 5586 5589 5592 5592 5593 5594 5595 5597 5598 5600
5627 5623 5619 5615 5611 5607 5602 5596 5592 5587 5582 5576 5569 5563 5555 5551 5551 5552 5556 5558 5559 5560 5561 5562 5563 5564 5565 5565 5566 5567 5567 5567 5569 5572 5574 5576 5578 5580 5581 5582 5584 5585 5586 5588
5625 5621 5617 5614 5610 5605 5600 5596 5591 5586 5581 5576 5570 5563 5556 5551 5547 5548 5550 5552 5555 5555 5556 5556 5556 5557 5557 5558 5558 5559 5559 5559 5560 5562 5564 5565 5566 5568 5570 5571 5572 5574 5575 5576
5623 5619 5616 5612 5608 5604 5599 5594 5589 5584 5579 5574 5569 5563 5557 5552 5548 5547 5546 5546 5548 5549 5550 5550 5550 5551 5551 5551 5551 5551 5551 5552 5552 5553 5554 5555 5556 5558 5560 5561 5563 5564 5565 5566
5619 5617 5613 5610 5606 5601 5596 5591 5586 5581 5576 5572 5567 5561 5557 5551 5548 5545 5543 5541 5541 5542 5544 5544 5544 5544 5543 5543 5543 5542 5542 5542 5543 5544 5544 5545 5546 5547 5548 5550 5551 5553 5554 5556
5616 5613 5610 5607 5603 5599 5594 5588 5584 5578 5573 5569 5563 5558 5555 5552 5548 5543 5540 5539 5539 5538 5537 5537 5536 5535 5535 5534 5534 5534 5534 5533 5533 5533 5534 5534 5535 5536 5537 5539 5540 5542 5543 5544
5612 5610 5607 5603 5599 5595 5591 5586 5580 5574 5569 5564 5559 5555 5552 5549 5546 5543 5538 5536 5535 5533 5532 5530 5529 5527 5526 5526 5525 5525 5525 5524 5524 5523 5523 5523 5523 5524 5525 5526 5528 5530 5531 5532
5608 5606 5603 5599 5595 5591 5586 5581 5576 5570 5564 5559 5555 5551 5548 5544 5541 5538 5534 5532 5529 5527 5525 5524 5522 5520 5518 5517 5516 5515 5515 5514 5514 5513 5512 5512 5512 5513 5514 5515 5517 5518 5519 5521
5603 5601 5598 5594 5590 5586 5582 5577 5570 5565 5559 5555 5550 5547 5543 5539 5535 5531 5527 5524 5521 5518 5515 5514 5512 5509 5508 5506 5505 5504 5503 5502 5502 5502 5502 5501 5501 5501 5501 5503 5504 5505 5507 5508
5598 5596 5593 5589 5586 5581 5576 5571 5565 5560 5554 5549 5544 5540 5535 5531 5527 5524 5519 5515 5511 5508 5505 5502 5499 5496 5494 5493 5492 5492 5491 5491 5490 5490 5490 5491 5491 5490 5491 5491 5492 5493 5494 5495
5592 5589 5586 5583 5579 5575 5570 5565 5559 5553 5548 5542 5537 5533 5528 5524 5520 5514 5510 5505 5501 5497 5493 5488 5484 5481 5480 5478 5477 5477 5477 5477 5477 5477 5477 5478 5479 5480 5480 5481 5481 5481 5482 5484
5585 5583 5580 5577 5572 5568 5563 5557 5551 5545 5540 5534 5529 5524 5518 5514 5509 5504 5500 5495 5490 5485 5479 5473 5468 5465 5462 5461 5459 5459 5459 5459 5460 5461 5462 5464 5465 5467 5468 5469 5470 5471 5472 5473
5579 5575 5572 5569 5565 5560 5555 5550 5544 5537 5531 5525 5519 5514 5509 5504 5497 5493 5488 5483 5479 5473 5465 5458 5452 5448 5445 5442 5441 5440 5439 5440 5441 5444 5447 5448 5450 5452 5454 5456 5457 5459 5461 5462
5571 5568 5565 5562 5557 5553 5547 5541 5535 5529 5522 5516 5509 5504 5498 5492 5487 5481 5475 5471 5464 5456 5449 5442 5436 5431 5428 5426 5424 5423 5422 5422 5422 5426 5429 5432 5435 5437 5440 5443 5445 5447 5449 5450
5563 5560 5557 5554 5549 5544 5538 5531 5525 5519 5512 5505 5500 5493 5487 5480 5473 5469 5464 5456 5448 5440 5432 5426 5420 5415 5413 5411 5409 5408 5408 5407 5408 5410 5412 5416 5419 5423 5426 5429 5431 5434 5435 5437
5555 5552 5549 5545 5540 5535 5529 5523 5516 5509 5502 5496 5489 5482 5475 5468 5462 5454 5447 5439 5431 5424 5417 5412 5407 5403 5400 5397 5396 5397 5397 5397 5396 5396 5399 5401 5405 5409 5413 5416 5419 5422 5423 5426
5546 5543 5539 5535 5530 5525 5519 5513 5506 5500 5493 5486 5478 5470 5463 5455 5448 5441 5432 5423 5416 5410 5405 5401 5397 5394 5391 5388 5386 5386 5387 5388 5387 5387 5387 5389 5393 5397 5400 5404 5407 5410 5412 5415
5537 5534 5529 5525 5520 5515 5509 5502 5496 5490 5482 5474 5466 5458 5449 5442 5434 5426 5417 5409 5403 5398 5394 5390 5388 5386 5384 5381 5379 5377 5377 5378 5379 5379 5379 5380 5382 5385 5388 5391 5394 5397 5400 5403